SCP
1 1 0 0 0 0 0 0 0 0 0 0 0 0 0 1 1 1 1 0 0 0 0 0 0 0 0 0 0 0 0 0 1 1 1 0 0 0 0 0 0 0 0 0
0 0 0 0 0 0 0 0 0 0 0 0 0 0 0 0 1 1 1 1 0 0 0 0 0 0 0 0 0 0 0 0 1 1 1 0 0 0 0 0 0 0 0 0
0 0 0 0 0 0 0 0 0 0 0 0 0 0 0 0 0 1 1 1 0 0 0 0 0 0 0 0 0 0 0 0 0 1 1 0 0 0 0 0 0 0 0 0
0 0 0 0 0 0 0 0 0 0 0 0 0 0 0 0 0 0 1 1 1 1 0 0 0 0 0 0 0 0 0 0 0 0 0 0 0 0 0 0 0 0 0 0
0 0 0 0 0 0 0 0 0 0 0 0 0 0 0 0 0 0 0 0 1 1 1 0 0 0 0 0 1 1 0 0 0 0 0 0 0 0 0 0 0 0 0 0
0 0 0 0 0 0 0 0 0 0 0 0 0 0 0 0 0 0 0 0 1 1 1 0 0 0 0 0 1 1 1 1 1 1 1 0 0 0 0 0 0 0 0 0
0 0 0 0 0 0 0 0 0 0 0 0 0 0 0 0 0 0 0 0 0 1 1 0 0 1 0 0 0 0 1 1 1 1 1 1 0 0 0 0 0 0 0 0
0 0 0 0 0 0 0 0 0 0 0 0 0 0 0 0 0 0 0 0 0 0 1 0 1 1 1 0 0 0 0 0 1 1 1 1 1 1 0 0 0 0 0 0
0 0 0 0 0 0 0 0 0 0 0 0 0 0 0 0 0 0 0 0 0 1 1 1 0 0 0 0 0 0 0 0 0 0 0 1 1 0 0 0 1 1 0 0
0 0 0 0 0 0 0 0 0 0 0 0 0 0 0 0 0 0 0 0 0 1 1 1 0 0 0 0 0 0 0 0 0 0 0 0 0 0 0 0 0 0 1 1
0 0 0 0 0 0 0 0 0 0 0 0 0 0 0 0 0 0 0 0 0 1 1 1 0 0 0 0 0 0 0 0 0 0 0 0 0 0 0 0 0 0 0 0
0 0 0 0 0 0 0 0 0 0 0 0 0 0 0 0 0 0 0 0 0 1 1 1 1 0 0 0 0 0 0 0 0 0 0 0 0 0 0 0 0 0 0 0
0 0 0 0 0 0 0 0 0 0 0 0 0 0 0 0 0 0 0 0 0 1 1 1 1 1 0 0 0 0 0 0 0 0 0 0 0 0 0 0 0 0 0 0
0 0 0 0 0 0 0 0 0 0 0 0 0 0 0 0 0 0 0 0 0 1 1 1 1 1 0 0 0 0 0 0 0 0 0 0 0 0 0 0 0 0 0 0
0 0 0 0 0 0 0 0 0 0 0 0 0 0 0 0 0 0 0 0 1 1 1 1 1 0 0 0 0 0 0 0 0 0 0 0 0 0 0 0 0 0 0 0
0 0 0 0 0 0 0 0 0 0 0 0 0 0 0 0 0 0 0 0 1 1 1 1 1 0 0 0 0 0 0 0 0 0 0 0 0 0 0 0 0 0 0 0
0 0 0 0 0 0 0 0 0 0 0 0 0 0 0 0 0 0 0 0 0 1 1 1 1 0 0 0 0 0 0 0 0 0 0 0 0 0 0 0 0 0 0 0
0 0 1 1 0 0 0 0 0 0 0 0 0 0 0 0 0 0 0 0 0 0 1 1 1 0 1 1 0 0 0 0 0 0 0 0 0 0 0 0 0 0 0 0
0 0 1 1 0 0 0 0 0 0 0 0 0 0 0 0 0 0 0 0 0 0 1 1 1 0 0 0 0 0 0 0 0 0 0 0 0 0 0 0 0 0 0 0
0 0 0 0 0 0 0 0 0 0 0 0 0 0 0 0 0 0 0 0 0 0 0 1 0 0 0 0 0 0 0 0 0 0 0 0 0 0 0 0 0 0 0 0
0 0 0 0 0 0 0 0 0 0 0 0 0 0 0 0 0 0 0 0 0 0 0 0 0 0 0 0 0 0 0 0 0 0 0 0 0 0 0 0 0 0 0 0
0 0 0 0 0 0 0 0 0 0 0 0 0 0 0 0 0 0 0 0 0 0 0 0 0 0 0 0 0 0 0 0 0 0 0 0 0 0 0 0 0 0 0 0
0 0 0 0 0 0 0 0 0 0 0 0 0 0 0 0 0 0 0 0 0 0 0 0 0 0 0 0 0 0 0 0 0 0 0 0 0 0 0 0 0 0 0 0
0 0 0 0 0 0 0 0 0 0 0 0 0 0 0 0 0 0 0 0 0 0 0 0 0 0 0 0 0 0 0 0 0 0 0 0 0 0 0 0 0 0 0 0
0 0 0 0 0 0 0 0 0 0 0 0 0 0 0 0 0 0 0 0 0 0 0 0 0 0 0 0 0 0 0 0 0 0 0 0 0 0 0 0 0 0 0 0
0 0 0 0 0 0 0 0 0 0 0 0 0 0 0 0 0 0 0 0 0 0 0 0 0 0 0 0 0 0 0 0 0 0 0 0 0 0 0 0 0 0 0 0
Wind_Speed
3 5 5 4 2 2 4 5 5 4 3 4 6 7 6 6 6 7 7 8 8 7 6 6 6 6 6 6 6 6 6 6 4 3 3 2 3 2 3 3 4 4 5 5
5 4 3 3 4 5 6 6 5 5 4 3 6 6 5 5 6 6 7 8 8 8 8 7 6 6 6 6 6 6 5 5 4 3 2 2 2 2 3 2 3 4 4 5
4 3 4 6 7 7 5 5 6 6 6 4 5 6 7 6 5 5 6 7 7 8 8 8 7 7 7 7 6 5 5 5 4 3 2 2 2 2 2 2 2 3 4 4
3 3 5 6 5 5 4 3 5 6 6 5 5 5 8 8 8 8 8 8 8 8 8 8 8 8 7 7 6 6 6 5 4 3 2 2 1 2 3 2 2 2 3 4
3 4 5 5 3 3 3 4 5 5 4 4 6 5 6 8 9 9 9 9 9 9 9 9 9 8 8 7 6 5 6 5 4 3 3 2 1 2 2 1 2 2 3 3
2 2 2 2 3 4 7 7 6 5 5 6 5 5 5 7 9 9 10 10 10 10 9 9 9 8 8 7 6 6 5 5 4 3 3 2 2 1 1 2 2 2 2 2
5 5 4 4 7 7 7 7 5 6 5 3 4 5 2 3 5 7 10 11 11 10 10 10 10 10 9 8 7 7 6 5 4 3 2 2 2 1 1 1 2 2 2 2
5 6 7 5 5 7 8 7 4 3 3 3 5 5 2 3 4 6 8 10 11 11 10 10 10 10 9 9 8 7 6 5 4 3 2 2 2 1 1 1 2 2 2 3
4 4 5 4 3 5 7 6 3 3 2 3 4 3 3 4 6 8 10 10 11 11 11 11 10 10 9 9 8 7 7 5 5 4 3 2 2 1 1 1 2 2 2 2
3 4 6 5 5 2 3 4 5 5 3 3 3 4 4 8 9 10 11 12 12 12 11 11 10 9 9 9 8 7 6 6 5 4 3 2 2 1 1 1 2 2 2 2
5 4 6 7 8 8 8 7 6 5 4 3 2 2 1 5 8 11 12 12 12 12 11 10 9 9 9 9 8 8 7 6 5 4 4 3 2 2 1 1 2 2 2 2
5 5 5 6 3 3 7 7 8 6 4 4 3 2 4 3 6 9 11 11 11 11 11 10 9 9 9 9 9 8 7 6 5 4 4 3 3 2 1 1 1 1 1 2
6 6 6 7 6 6 7 7 8 6 5 5 5 3 5 4 5 8 10 11 11 11 11 10 10 9 9 9 8 8 7 6 5 5 4 3 3 2 1 1 1 1 1 1
6 6 6 4 0 5 7 8 9 9 7 7 7 4 4 6 7 8 9 11 11 11 11 11 10 10 9 9 8 8 7 6 5 5 4 3 2 2 1 1 1 1 1 2
6 6 5 4 2 4 6 8 10 12 10 8 6 6 6 6 8 9 10 11 12 12 12 12 11 10 10 9 8 7 7 6 6 5 4 3 3 2 1 1 1 1 2 2
7 6 5 6 5 6 7 8 10 11 10 10 9 8 5 3 6 9 11 12 13 13 12 12 12 11 11 10 9 8 7 7 6 5 4 3 3 3 2 1 1 2 1 2
7 7 7 6 5 5 8 9 10 10 10 10 10 7 5 7 9 11 12 13 13 13 13 12 12 11 11 11 10 9 8 7 6 5 5 4 3 3 2 2 2 1 1 2
7 8 5 5 5 8 2 1 5 8 9 10 8 5 7 7 6 7 9 12 13 12 12 12 11 11 10 10 9 9 8 7 6 5 5 4 3 3 2 2 1 0 0 1
6 7 6 6 7 7 4 4 5 7 7 8 9 7 6 6 7 6 8 9 10 11 11 11 11 11 10 10 9 9 8 7 6 5 5 4 4 3 2 2 1 1 0 0
4 6 7 7 7 6 2 3 3 5 6 4 7 9 9 10 8 7 10 10 10 10 9 9 10 10 10 9 9 9 8 7 7 6 5 4 4 3 3 2 1 0 0 1
7 7 9 9 9 6 1 4 5 7 2 2 6 8 11 11 5 5 10 10 10 10 10 10 10 9 9 9 9 9 8 7 6 6 5 5 4 3 3 2 1 1 1 1
8 7 9 9 9 7 5 7 6 2 2 1 3 6 9 7 5 8 10 10 11 11 11 11 10 9 8 9 9 8 7 6 6 6 5 5 4 3 3 2 2 1 1 2
7 6 4 6 4 2 3 4 2 3 2 1 2 5 7 8 7 8 10 10 10 11 10 10 10 9 8 8 8 8 7 6 7 6 5 5 4 3 3 3 2 2 2 2
4 2 4 5 5 3 3 4 5 4 4 3 3 4 7 8 9 9 9 10 10 10 10 9 10 10 8 7 7 6 7 7 7 6 5 5 4 3 3 2 2 2 2 3
3 5 5 6 4 3 4 5 4 3 3 2 3 5 7 8 9 10 9 9 9 9 9 9 9 9 9 8 7 6 7 7 7 6 5 4 3 3 2 2 2 3 2 2
6 7 7 6 4 4 2 1 2 3 3 3 5 6 6 7 9 9 9 9 9 9 9 9 9 9 9 8 7 7 6 7 7 5 5 3 3 3 2 2 2 1 3 2
Wind_Direction
180 200 181 168 181 159 159 164 154 127 131 172 161 153 154 157 170 177 172 167 162 154 143 141 143 145 144 137 133 126 129 127 129 122 121 113 101 86 75 53 46 34 20 14
187 183 155 146 161 175 175 170 157 131 135 176 158 157 155 172 182 188 182 171 166 161 156 149 149 150 148 141 139 137 137 135 129 108 100 93 81 72 63 50 45 28 23 18
192 117 148 170 170 177 185 189 168 149 149 166 166 176 177 175 186 190 192 181 174 176 170 159 157 153 151 150 147 146 144 138 127 125 117 120 117 130 105 72 49 29 26 31
192 161 181 183 177 192 174 157 166 166 180 166 208 192 184 185 187 190 189 186 182 178 176 166 165 161 159 149 147 152 149 142 142 152 149 130 98 73 60 40 48 49 42 35
154 170 182 179 174 196 132 145 167 180 195 190 203 229 166 183 196 193 190 188 183 178 177 172 169 165 159 151 150 151 149 144 146 153 141 170 112 81 72 63 61 40 53 38
152 162 217 161 135 156 147 153 157 188 216 217 200 230 181 183 201 188 184 186 181 177 175 171 162 160 156 152 152 154 155 146 151 163 169 162 119 104 73 55 47 42 57 43
174 170 155 164 153 162 197 193 190 195 206 201 169 232 207 155 190 191 184 183 179 174 172 169 164 165 161 160 160 160 159 157 160 173 173 148 144 143 69 34 40 19 34 32
192 173 173 190 203 190 199 224 241 229 206 161 183 224 135 127 175 185 182 177 173 172 172 170 170 168 165 164 165 165 162 159 161 171 160 148 137 127 68 36 22 18 22 27
206 165 146 174 198 205 191 211 270 277 225 218 184 182 163 151 165 170 170 169 173 173 172 170 169 168 165 165 168 168 164 162 164 165 151 141 126 101 72 35 30 26 26 27
223 189 157 158 174 182 247 192 206 236 234 222 194 206 185 169 172 173 174 175 173 172 170 168 167 167 166 164 166 164 164 162 162 157 146 137 143 120 67 34 34 28 28 25
224 214 164 180 208 193 182 196 219 233 256 262 217 148 104 177 177 179 179 176 171 170 169 167 166 165 161 160 162 163 165 164 162 160 151 146 139 126 110 67 45 33 27 18
209 239 200 187 166 251 228 221 219 228 212 240 263 100 95 175 174 178 175 171 169 168 168 164 162 160 160 162 164 165 163 160 158 160 159 149 148 147 151 86 48 34 31 18
181 226 205 177 182 188 211 216 224 237 237 230 236 146 124 152 164 168 170 167 167 168 166 162 162 162 163 163 165 164 163 158 156 158 158 156 161 157 155 111 55 7 9 20
209 229 243 237 157 180 200 202 210 220 229 228 231 225 186 184 178 172 170 170 168 169 168 165 164 163 164 165 165 163 162 158 158 161 158 156 154 156 168 138 95 8 357 356
220 233 230 248 228 207 219 212 207 222 239 249 242 237 232 207 194 179 172 171 170 171 171 171 170 166 166 166 165 162 164 164 163 162 161 156 148 143 145 125 99 51 14 355
216 231 224 222 209 218 229 230 221 226 238 242 245 250 248 208 187 178 176 174 176 176 176 175 172 168 170 168 166 165 168 168 166 162 154 145 152 139 135 130 98 72 44 14
201 218 225 225 195 221 238 233 223 218 221 227 235 238 194 187 185 185 182 181 181 179 177 176 175 174 174 171 170 169 168 165 168 160 149 154 152 143 149 142 113 96 73 34
214 216 226 237 214 241 259 116 235 229 232 230 241 233 203 195 185 187 186 183 181 178 176 176 176 173 173 169 169 166 164 167 168 159 153 150 151 146 147 146 128 147 59 43
235 217 219 229 242 256 240 204 206 218 235 229 227 215 192 162 160 178 184 188 183 176 174 172 173 169 168 167 166 165 167 167 166 161 160 155 153 150 149 152 172 221 273 357
208 225 228 220 238 248 247 144 195 230 237 212 211 200 181 174 196 185 171 174 172 167 165 163 164 163 164 164 164 168 168 168 168 164 164 154 154 157 162 164 181 195 244 267
186 201 221 228 240 253 245 135 180 220 246 145 198 193 185 196 210 136 152 160 160 158 157 157 158 160 161 161 164 168 167 169 162 158 156 152 158 166 166 164 179 198 230 264
208 205 215 224 235 241 143 167 207 276 25 156 197 193 193 190 136 136 148 152 153 153 154 157 157 154 155 161 166 164 163 159 152 152 155 158 162 166 167 171 190 212 229 246
226 235 229 227 239 33 168 220 290 322 288 254 205 186 181 172 161 152 153 152 153 153 153 156 154 150 153 162 169 163 158 158 155 156 160 164 166 168 179 190 200 218 234 258
192 222 229 235 246 248 243 255 257 262 265 261 227 190 177 173 164 159 157 154 153 153 153 156 156 155 154 159 165 159 155 160 162 165 169 170 177 180 184 206 228 239 249 259
207 189 223 241 252 255 241 241 250 255 249 221 190 184 180 169 165 163 160 157 153 151 153 157 160 158 156 156 159 157 161 166 170 172 177 179 184 192 204 207 245 258 262 294
205 210 222 239 236 243 251 255 251 233 219 196 173 166 170 169 164 161 159 156 154 153 154 158 160 158 156 156 157 157 164 174 177 178 182 185 188 194 211 220 214 225 256 268